星链-1026 (STARLINK-1026 )

导读

STARLINK-1026是美国太空探索技术公司(SpaceX)发射的星链(Starlink)低轨卫星,于2019年11月11日发射入轨,属于星链项目早期组网卫星。星链计划旨在构建全球卫星互联网星座,为全球偏远地区等提供高速低延迟网络服务,该卫星承担着早期技术验证与星座组网测试任务。

基本信息
目录编号:
44731
目录名称:
STARLINK-1026
国际标识:
2019-074U
轨道中心:
EARTH
卫星名称:
星链-1026
卫星全名:
星链-1026 (STARLINK-1026 )
卫星状态:
已陨落 最后检测时间 2023-09-22
发射日期:
2019-11-11 UTC
国别 :
美国 (US)
星等 :
--
轨道信息
数据来源 国际轨道数据
星历时间: 2023-09-23T11:33:11+0800
轨道信息已过期995天
半长轴: 6550.979km
偏心率: 0.0004672
轨道倾角: 53.027°
近地点辐角 293.296°
升交点赤经 224.361°
平近点角 148.732°
近地点: 169.783km
远地点: 175.905km
周期: 87.947分钟
每日圈数: 16.373574
详细信息
固有亮度:
5
最大亮度:
2.5
卫星平台:
Starlink V1.0
覆盖范围:
全球
运营商:
太空探索技术公司
运营商所在国:
美国
制造商(研发单位):
太空探索技术公司
制造商所在国:
美国
使用方式:
暂无
卫星简介
星链(Starlink)计划是由太空探索技术公司(SpaceX)提出的一个巨型低轨卫星互联网星座项目,计划在2019年至2024年间在太空搭建由约1.2万颗卫星组成的“星链”网络,其中1584颗将部署在地球上空550千米处的近地轨道,并从2020年开始工作。该卫星已陨落。